Location: Bun
(42.9667°N, 0.1500°W)
Time: 05:39:23
(UTC+00:00)

Meteor 2-12 Rocket - Pass Details

Date: 03 February 2023
Orbit: 935 x 958 km, 82.5° (Epoch: 26 March)

Event Time Altitude Azimuth Distance (km) Brightness Sun altitude
Rises 18:18:23 0° 354° (N) 3,619 7.4 -11.8°
Reaches altitude 10° 18:20:56 10° 358° (N) 2,667 6.7 -12.3°
Maximum altitude 18:26:57 61° 79° (E) 1,060 4.4 -13.4°
Drops below altitude 10° 18:32:54 10° 159° (SSE) 2,639 6.7 -14.4°
Sets 18:35:24 0° 163° (SSE) 3,578 7.4 -14.9°
